Regional Weather Roundup
Issued by NWS Sterling, VA

Home | Current Version | Previous Version | Text Only | Print | Product List | Glossary On
Versions: 1 2 3 4 5 6 7 8 9 10 11 12 13 14 15 16 17 18 19 20 21 22 23 24 25 26 27 28 29 30 31 32 33 34 35 36 37 38 39 40 41 42 43 44 45 46 47 48 49 50
000
ASUS41 KLWX 010610
RWRLWX

REGIONAL WEATHER ROUNDUP
NATIONAL WEATHER SERVICE BALTIMORE MD/WASHINGTON DC
100 AM EST SUN FEB 01 2015

Note: "FAIR" indicates few or no clouds below 12,000 feet
with no significant weather and/or obstructions to visibility.
 TC=TEMPERATURE CELSIUS

 * =Non NWS site. Station does not report precipitation (e.g. rain,
    snow, etc.), thunder, or fog.

DCZ001-MDZ009-015-VAZ040>042-051-053>054-010700-
WASHINGTON METRO

CITY           SKY/WX    TMP DP  RH WIND       PRES   REMARKS
WASHINGTON NAT MOCLDY    30  17  58 CALM      30.29S
DULLES         MOCLDY    20  13  74 CALM      30.27R
ANDREWS AFB    CLEAR     20  13  72 N2        30.26S
FT BELVOIR     PTCLDY    20  15  82 CALM      30.29S
QUANTICO       PTCLDY    23  15  71 NW8       30.30S WCI  14
COLLEGE PARK*  PTCLDY    21  18  86 CALM      30.28S
LEESBURG*      CLEAR     21  18  86 CALM      30.27S
MANASSAS*      PTCLDY    19  18  93 S3        30.28S
GAITHERSBURG*  CLEAR     16  10  79 CALM      30.28F

$$

MDZ006>007-011-014-010700-
BALTIMORE METRO

CITY           SKY/WX    TMP DP  RH WIND       PRES   REMARKS
BWI AIRPORT    PTCLDY    19  11  70 CALM      30.27S
MD SCIENCE CTR   N/A     27  12  53 MISG      30.27F
MARTIN STATE   CLEAR     21  19  93 CALM      30.29F
ANNAPOLIS      CLEAR     22  16  78 CALM      30.27F
FORT MEADE*    CLEAR     18  14  86 CALM      30.29F

$$

MDZ012-015-019>023-010700-
MARYLAND EASTERN SHORE

CITY           SKY/WX    TMP DP  RH WIND       PRES   REMARKS
OCEAN CITY     CLEAR     19  13  77 W3        30.28S
SALISBURY      CLEAR     19  12  74 CALM      30.28S
BAY BRIDGE AP*   N/A     23  18  80 CALM      30.28F
CAMBRIDGE*     FAIR      23  16  74 CALM      30.28S
EASTON*        FAIR      23  16  77 CALM      30.31S

$$

MDZ017>025-010700-
SOUTHERN MARYLAND

CITY           SKY/WX    TMP DP  RH WIND       PRES   REMARKS
PATUXENT RIVER PTCLDY    19  11  70 CALM      30.27F
ST INIGOES     NOT AVBL
LEONARDTOWN*   PTCLDY    21  12  68 CALM      30.29S

$$

MDZ003>005-010700-
NORTH CENTRAL MARYLAND

CITY           SKY/WX    TMP DP  RH WIND       PRES   REMARKS
FREDERICK*     CLEAR     27  10  50 SW5       30.28F
HAGERSTOWN APT CLEAR     25   9  50 S5        30.23F
WESTMINSTER*   PTCLDY    19   9  63 SW3       30.22F

$$

MDZ501>502-010700-
WESTERN MARYLAND

CITY           SKY/WX    TMP DP  RH WIND       PRES   REMARKS
OAKLAND*       CLOUDY    23  10  58 W12G21    30.12S WCI  12
CUMBERLAND*    PTCLDY    21  16  79 CALM      30.26F

$$

VAZ025>031-010700-
SHENANDOAH VALLEY

CITY           SKY/WX    TMP DP  RH WIND       PRES   REMARKS
WINCHESTER*    CLEAR     27   9  46 CALM      30.23S
FRONT ROYAL*   FAIR      21  16  79 S3        30.23S
LURAY*         FAIR      27  21  80 CALM      30.23S
NEW MARKET*    FAIR      24  17  74 CALM      30.22F
STAUNTON*      CLOUDY    28  16  60 CALM      30.23S
WAYNESBORO*    FAIR      34   2  26 W6        30.21S

$$

WVZ021-048>050-054>055-010700-
EASTERN WEST VIRGINIA PANHANDLE

CITY           SKY/WX    TMP DP  RH WIND       PRES   REMARKS
MARTINSBURG    PTCLDY    21  10  62 E3        30.24F
PETERSBURG*    MOCLDY    27  16  63 E3        30.23S

$$

VAZ036>039-050-010700-
CENTRAL FOOTHILLS

CITY           SKY/WX    TMP DP  RH WIND       PRES   REMARKS
CHARLOTTESVILL MOCLDY    27  14  58 CALM      30.24R
CULPEPER*      MOCLDY    21  18  86 CALM      30.26F
ORANGE*        CLOUDY    27  21  80 CALM      30.27S
GORDONSVILLE*  FAIR      24  14  66 CALM      30.25S
WARRENTON*     FAIR      21  21 100 CALM      30.26S

$$

VAZ055>057-010700-
NORTH AND CENTRAL PIEDMONT

CITY           SKY/WX    TMP DP  RH WIND       PRES   REMARKS
FREDERICKSBRG* MOCLDY    25  16  68 CALM      30.27S
STAFFORD*      MOCLDY    20  14  76 CALM      30.31F

$$

NCZ024-NYZ072-PAZ021-071-VAZ022-071-010700-
OTHER REGIONAL OBSERVATIONS

CITY           SKY/WX    TMP DP  RH WIND       PRES   REMARKS
NEW YORK CITY  CLEAR     20   6  55 CALM      30.21S
PHILADELPHIA   PTCLDY    22  11  62 W6        30.27S
PITTSBURGH     CLOUDY    28  17  63 SW5       30.18F
ROANOKE        CLOUDY    37  11  34 NW6       30.25S
RICHMOND       PTCLDY    25  16  68 CALM      30.25S
RALEIGH        CLOUDY    34  18  52 CALM      30.27F

$$

ANZ530>537-010700-
MARINE OBSERVATIONS

STATION/POSITION TIME  TEMP    WIND        PRES
                       AIR SEA DIR/SP/G
                 (UTC) (F)     (DEG/KT/KT) (MB)
THOMAS PT LIGHT  0600   29 35   CALM  /  1 1026.3F
BALT KEY BRIDGE  0600   28     310/  3/  4 1025.0F
COVE POINT       0600   30     210/  3/  4 1025.2S
LEWISETTA        0600   26 33     CALM     1025.2F
SOLOMONS ISLAND  0600      36                N/A
PINEY POINT      0600          160/  2/  3   N/A

$$



USA.gov is the U.S. government's official web portal to all federal, state and local government web resources and services.